Wind_Speed
12 14 16 18 20 21 21 26 31 32 30 29 29 28 29 29 29 28 28 29 27 29 23 20 14 21 18 16 14 16 23 19
11 12 13 17 19 20 18 23 27 30 30 29 28 27 28 29 28 28 27 27 27 29 29 27 21 16 17 26 21 21 25 22
9 12 13 16 17 19 18 21 23 26 26 26 22 22 24 25 26 27 29 27 27 28 28 29 25 25 17 16 18 24 22 19
8 15 12 13 15 16 18 18 20 22 24 23 25 22 24 27 29 28 27 27 26 30 28 27 26 24 24 21 19 18 21 20
10 14 13 11 13 14 16 16 16 20 23 22 24 24 24 23 24 24 25 25 25 28 29 29 26 25 25 22 24 20 17 20
8 14 11 8 9 11 14 14 14 18 23 21 22 22 21 21 23 24 26 27 25 27 28 26 31 22 23 24 24 23 23 23
10 9 9 7 5 9 10 10 12 16 21 20 20 22 21 22 23 25 26 27 27 28 28 25 30 24 23 23 27 28 27 25
7 7 6 8 6 4 5 6 8 11 15 16 17 19 20 20 20 21 24 27 26 27 26 25 28 22 23 25 24 26 26 24
6 7 3 4 6 2 2 2 4 6 10 13 15 17 18 19 18 18 19 21 22 23 23 22 24 20 21 23 24 23 25 22
7 8 4 1 4 5 4 2 2 3 7 10 13 14 15 18 19 17 18 20 20 21 21 21 22 21 19 23 25 27 27 23
8 9 8 6 5 5 6 6 5 3 5 8 11 14 14 16 19 17 18 19 17 19 19 19 20 21 21 20 23 28 30 23
9 11 11 10 8 8 6 7 8 9 8 6 8 11 13 15 16 15 16 19 16 15 17 20 19 18 20 20 22 26 30 24
13 12 12 14 13 11 10 9 11 13 10 8 8 9 11 15 15 15 15 18 15 14 16 20 17 17 17 16 20 24 26 25
12 14 15 18 16 15 15 14 14 14 14 11 11 10 10 14 14 15 15 16 16 13 16 16 16 15 17 15 16 20 24 24
10 15 18 17 19 19 20 18 14 13 17 16 15 14 13 14 13 13 15 15 16 14 16 14 15 15 14 15 15 17 20 23
7 12 15 14 18 24 22 19 15 15 19 20 20 17 17 16 15 14 15 15 16 13 17 14 14 14 11 12 17 16 17 20
8 17 19 21 19 17 16 17 21 22 23 24 23 21 19 19 19 18 15 14 15 14 17 16 15 9 10 14 16 14 16 18
8 15 20 22 21 21 22 25 28 29 28 28 28 27 24 22 22 20 18 15 14 15 17 15 15 10 11 14 12 12 17 18
15 20 23 24 27 28 28 29 28 28 30 36 35 32 28 25 26 24 21 17 15 15 16 15 14 12 12 14 10 16 16 19
Wind_Direction
99 87 77 68 59 57 50 42 31 28 30 34 41 42 42 38 41 33 28 24 24 24 18 8 331 286 283 298 300 310 322 298
102 100 86 73 61 58 58 44 40 28 28 30 33 34 32 35 34 32 31 24 22 21 18 17 10 354 288 278 281 285 293 302
61 88 83 74 62 57 57 52 44 35 29 32 34 36 31 29 29 34 30 24 23 23 17 16 17 13 357 331 312 300 286 298
46 69 103 86 68 62 58 53 42 40 31 28 30 32 30 22 21 24 24 23 23 19 17 13 13 14 10 8 350 333 290 280
61 61 110 87 74 68 54 57 49 40 32 33 32 31 26 20 15 15 17 19 20 20 18 16 9 8 8 2 354 343 340 284
68 85 110 98 84 68 51 54 49 40 29 30 30 30 25 18 16 12 12 13 20 17 15 14 11 9 8 13 3 355 350 344
79 68 82 70 79 67 59 55 50 32 26 24 24 24 20 17 15 11 7 6 10 14 14 14 11 15 15 356 353 353 346 342
85 86 56 15 33 84 66 64 52 31 26 24 18 19 18 16 13 8 4 2 5 7 10 12 11 14 4 2 356 346 342 345
117 135 68 38 351 245 341 75 50 28 22 22 17 12 11 10 9 7 4 360 359 1 5 7 9 12 0 358 1 357 354 354
157 176 185 326 318 276 272 259 332 357 10 12 13 10 4 0 359 359 358 357 357 357 1 1 4 9 1 353 359 0 357 357
192 193 205 220 252 297 249 257 280 287 323 338 349 354 352 351 351 349 350 351 352 353 352 354 357 1 0 2 3 2 1 359
209 217 224 227 239 251 243 245 250 250 266 286 316 335 341 341 342 341 340 344 346 349 345 345 353 356 353 352 357 360 1 -0
223 227 233 229 233 231 230 249 265 259 246 261 289 312 327 332 328 332 330 336 340 338 340 340 343 350 348 346 350 356 360 357
239 240 241 235 232 233 239 250 258 253 237 255 275 288 302 320 310 316 321 327 329 325 335 337 334 335 340 340 348 351 355 358
239 246 259 264 247 242 247 248 243 251 230 249 262 274 290 302 291 294 309 315 317 315 328 325 332 325 330 330 344 349 353 352
278 269 271 268 252 248 253 250 250 255 236 244 253 263 280 282 272 275 294 303 308 303 319 315 322 316 324 329 332 341 349 349
23 14 4 354 325 297 273 256 260 256 245 245 250 255 258 265 260 264 277 289 295 292 312 311 312 300 315 327 329 332 339 344
347 345 345 343 340 335 319 304 298 279 257 255 247 250 244 256 255 254 268 277 280 284 302 306 306 289 315 330 318 327 331 334
334 335 333 331 326 321 317 315 310 305 294 278 267 250 243 246 243 251 260 271 269 279 293 290 282 282 303 321 316 327 329 331
Height
920 919 918 917 916 913 911 909 907 904 901 898 895 893 891 888 886 883 880 877 873 870 867 863 861 859 857 856 856 858 861 860
920 920 920 919 918 916 914 911 909 907 903 900 897 895 893 891 888 886 882 880 876 872 868 864 861 858 855 851 852 851 855 859
920 920 920 920 920 918 916 913 911 909 907 905 903 900 897 894 891 887 884 881 878 874 870 866 862 857 855 853 852 853 850 858
921 920 920 921 920 919 916 915 913 912 910 908 904 901 898 894 891 889 886 884 881 877 873 869 866 862 859 856 855 854 851 853
920 919 920 920 919 919 917 916 915 913 911 909 907 904 901 899 896 893 890 887 883 880 876 871 868 865 861 859 857 856 852 848
920 919 920 920 920 919 918 917 916 915 912 910 908 906 904 901 898 894 891 888 885 882 878 874 870 867 864 862 858 854 852 848
920 920 921 921 920 919 918 917 916 914 912 910 908 906 904 901 898 895 891 889 886 883 880 876 872 869 866 864 860 857 853 847
920 920 920 920 919 920 919 917 915 914 912 910 909 907 904 901 898 896 892 889 886 884 882 878 874 870 868 865 862 858 853 849
919 919 919 919 918 918 917 916 914 913 911 909 907 905 903 902 900 897 895 892 888 885 882 880 876 871 868 865 862 858 854 849
917 917 917 917 916 916 916 914 913 911 909 907 905 904 903 901 899 896 893 890 887 884 882 881 878 873 870 866 862 857 852 847
915 914 913 913 913 913 913 912 910 909 907 905 903 901 900 899 897 894 892 889 887 884 882 880 877 873 871 867 863 858 853 848
912 911 910 909 909 909 908 908 907 906 904 903 901 899 898 897 896 895 892 890 887 885 882 878 874 872 871 869 864 860 854 849
909 908 907 905 904 904 904 904 903 902 902 901 899 897 895 894 893 892 891 889 886 883 880 877 874 872 869 868 865 861 855 850
906 906 904 902 900 900 899 899 898 898 898 897 896 894 893 891 891 890 888 887 885 882 879 875 872 871 869 866 863 860 856 852
903 902 900 898 897 896 894 894 893 893 893 892 891 891 889 887 886 886 884 883 881 879 877 875 872 868 866 864 861 858 855 851
903 900 896 894 892 891 890 890 890 889 887 886 885 884 883 882 881 880 879 878 877 875 873 871 868 866 864 860 858 856 853 850
905 902 900 897 895 891 889 888 886 883 881 879 878 877 876 875 874 874 872 871 870 870 868 867 864 862 860 857 854 852 850 848
904 902 899 897 895 893 890 887 883 879 875 872 869 868 867 867 867 866 865 864 863 863 862 861 859 858 856 853 851 848 846 844
902 900 898 894 891 888 884 880 877 873 870 866 863 860 858 858 858 857 856 856 856 856 856 855 854 852 851 849 847 844 842 841